TimeMST,TemperatureF,Dew PointF,Humidity,Sea Level PressureIn,VisibilityMPH,Wind Direction,Wind SpeedMPH,Gust SpeedMPH,PrecipitationIn,Events,Conditions,WindDirDegrees,DateUTC
12:55 AM,9.0,3.0,77,30.10,10.0,WNW,3.5,-,N/A,,Clear,300,2013-02-13 07:55:00
1:55 AM,12.9,3.0,65,30.08,10.0,Calm,Calm,-,N/A,,Clear,0,2013-02-13 08:55:00
2:55 AM,10.0,1.9,70,30.06,10.0,NW,3.5,-,N/A,,Clear,320,2013-02-13 09:55:00
3:55 AM,10.9,3.9,73,30.04,10.0,North,4.6,-,N/A,,Partly Cloudy,360,2013-02-13 10:55:00
4:55 AM,6.1,1.0,80,30.06,10.0,NNW,3.5,-,N/A,,Clear,330,2013-02-13 11:55:00
5:55 AM,7.0,1.0,77,30.10,10.0,NNW,3.5,-,N/A,,Clear,340,2013-02-13 12:55:00
6:55 AM,3.9,-0.0,84,30.13,10.0,North,5.8,-,N/A,,Clear,350,2013-02-13 13:55:00
7:55 AM,19.0,7.0,59,30.08,10.0,NNE,3.5,-,N/A,,Clear,20,2013-02-13 14:55:00
8:55 AM,30.0,9.0,41,30.04,10.0,Calm,Calm,-,N/A,,Clear,0,2013-02-13 15:55:00
9:55 AM,39.0,9.0,29,30.00,10.0,Calm,Calm,-,N/A,,Clear,0,2013-02-13 16:55:00
10:55 AM,43.0,8.1,24,29.99,10.0,Calm,Calm,-,N/A,,Clear,0,2013-02-13 17:55:00
11:55 AM,46.0,7.0,20,29.98,10.0,SW,6.9,-,N/A,,Clear,220,2013-02-13 18:55:00
12:55 PM,48.9,7.0,18,29.95,10.0,WNW,9.2,-,N/A,,Clear,290,2013-02-13 19:55:00
1:55 PM,48.0,7.0,19,29.94,10.0,NW,23.0,29.9,N/A,,Clear,320,2013-02-13 20:55:00
2:55 PM,46.9,6.1,19,29.95,10.0,NW,19.6,-,N/A,,Clear,310,2013-02-13 21:55:00
3:55 PM,45.0,7.0,21,29.96,10.0,NNW,15.0,21.9,N/A,,Clear,330,2013-02-13 22:55:00
4:55 PM,37.0,7.0,29,30.02,10.0,NW,8.1,-,N/A,,Clear,310,2013-02-13 23:55:00
5:55 PM,26.1,5.0,41,30.07,10.0,NW,5.8,-,N/A,,Clear,320,2013-02-14 00:55:00
6:55 PM,25.0,7.0,46,30.12,10.0,NW,8.1,-,N/A,,Clear,320,2013-02-14 01:55:00
7:55 PM,21.9,8.1,55,30.09,10.0,NW,3.5,-,N/A,,Clear,310,2013-02-14 02:55:00
8:55 PM,21.0,10.0,63,30.06,10.0,North,8.1,-,N/A,,Clear,350,2013-02-14 03:55:00
9:55 PM,23.0,10.0,58,30.04,10.0,WSW,5.8,-,N/A,,Clear,250,2013-02-14 04:55:00
10:55 PM,18.0,9.0,68,30.05,10.0,WSW,5.8,-,N/A,,Clear,240,2013-02-14 05:55:00
11:55 PM,19.9,10.9,68,30.05,10.0,NW,4.6,-,N/A,,Clear,320,2013-02-14 06:55:00